| time (UTC) | temp C | wind direction | speed KPH | gust KPH | rain 1hr cm | rain 24hr cm | rain mn cm | humidity % | barometer mb |
| 20260510150042 | 11 | 355 | 4.8 | 0.0 | 0.00 | 0.00 | 0.00 | 42 | 1013.5 |
| 20260510144534 | 12 | 290 | 4.8 | 0.0 | 0.00 | 0.00 | 0.00 | 41 | 1013.2 |
| 20260510143026 | 12 | 255 | 3.2 | 0.0 | 0.00 | 0.00 | 0.00 | 43 | 1012.8 |
| 20260510141530 | 12 | 225 | 3.2 | 0.0 | 0.00 | 0.00 | 0.00 | 44 | 1012.7 |
| 20260510140021 | 12 | 290 | 6.4 | 0.0 | 0.00 | 0.00 | 0.00 | 44 | 1012.4 |
| 20260510134516 | 12 | 261 | 4.8 | 0.0 | 0.00 | 0.00 | 0.00 | 44 | 1012.4 |
| 20260510133013 | 12 | 224 | 4.8 | 0.0 | 0.00 | 0.00 | 0.00 | 44 | 1012.4 |
| 20260510131510 | 12 | 207 | 4.8 | 0.0 | 0.00 | 0.00 | 0.00 | 44 | 1012.5 |
| 20260510130003 | 12 | 236 | 6.4 | 0.0 | 0.00 | 0.00 | 0.00 | 44 | 1012.3 |
| 20260510124604 | 12 | 227 | 4.8 | 0.0 | 0.00 | 0.00 | 0.00 | 42 | 1012.2 |
| 20260510123102 | 12 | 194 | 3.2 | 0.0 | 0.00 | 0.00 | 0.00 | 41 | 1012.1 |
| 20260510121559 | 12 | 202 | 1.6 | 0.0 | 0.00 | 0.00 | 0.00 | 35 | 1012.1 |
| 20260510120055 | 12 | 205 | 6.4 | 0.0 | 0.00 | 0.00 | 0.00 | 21 | 1012.1 |
| 20260510114551 | 11 | 200 | 1.6 | 0.0 | 0.00 | 0.00 | 0.00 | 100 | 1011.8 |
| 20260510113046 | 10 | 202 | 1.6 | 0.0 | 0.00 | 0.00 | 0.00 | 100 | 1011.8 |
| 20260510111537 | 8 | 200 | 0.0 | 0.0 | 0.00 | 0.00 | 0.00 | 100 | 1011.6 |
| 20260510110033 | 8 | 200 | 0.0 | 0.0 | 0.00 | 0.00 | 0.00 | 100 | 1011.4 |
| 20260510104534 | 7 | 200 | 0.0 | 0.0 | 0.00 | 0.00 | 0.00 | 100 | 1011.4 |
| 20260510103025 | 7 | 200 | 0.0 | 0.0 | 0.00 | 0.00 | 0.00 | 100 | 1011.1 |
| 20260510101521 | 7 | 200 | 0.0 | 0.0 | 0.00 | 0.00 | 0.00 | 100 | 1011.3 |
| 20260510100017 | 7 | 200 | 0.0 | 0.0 | 0.00 | 0.00 | 0.00 | 100 | 1010.9 |
| 20260510094530 | 7 | 200 | 0.0 | 0.0 | 0.00 | 0.00 | 0.00 | 100 | 1010.8 |
| 20260510093008 | 7 | 200 | 0.0 | 0.0 | 0.00 | 0.00 | 0.00 | 100 | 1010.5 |
| 20260510091507 | 7 | 200 | 0.0 | 0.0 | 0.00 | 0.00 | 0.00 | 100 | 1010.1 |
| 20260510090003 | 8 | 200 | 0.0 | 0.0 | 0.00 | 0.00 | 0.00 | 2 | 1010.1 |
| 20260510084603 | 8 | 200 | 0.0 | 0.0 | 0.00 | 0.00 | 0.00 | 4 | 1010.0 |
| 20260510083055 | 8 | 200 | 0.0 | 0.0 | 0.00 | 0.00 | 0.00 | 4 | 1009.8 |
| 20260510081558 | 9 | 200 | 0.0 | 0.0 | 0.00 | 0.00 | 0.00 | 4 | 1009.8 |
| 20260510080048 | 9 | 200 | 0.0 | 0.0 | 0.00 | 0.00 | 0.00 | 3 | 1009.9 |
| 20260510074544 | 9 | 200 | 0.0 | 0.0 | 0.00 | 0.00 | 0.00 | 1 | 1010.0 |
| 20260510073040 | 9 | 200 | 0.0 | 0.0 | 0.00 | 0.00 | 0.00 | 100 | 1010.0 |
| 20260510071537 | 10 | 200 | 1.6 | 0.0 | 0.00 | 0.00 | 0.00 | 100 | 1010.1 |
| 20260510070036 | 10 | 199 | 1.6 | 0.0 | 0.00 | 0.00 | 0.00 | 100 | 1010.3 |
| 20260510064529 | 10 | 208 | 3.2 | 0.0 | 0.00 | 0.00 | 0.00 | 6 | 1011.0 |
| 20260510063024 | 10 | 229 | 3.2 | 0.0 | 0.00 | 0.00 | 0.00 | 7 | 1011.5 |
| 20260510061525 | 10 | 238 | 4.8 | 0.0 | 0.00 | 0.00 | 0.00 | 2 | 1011.5 |
| 20260510060015 | 10 | 235 | 9.7 | 0.0 | 0.00 | 0.00 | 0.00 | 100 | 1011.7 |
| 20260510054511 | 10 | 245 | 4.8 | 0.0 | 0.00 | 0.00 | 0.00 | 100 | 1011.4 |
| 20260510053007 | 9 | 209 | 6.4 | 0.0 | 0.00 | 0.00 | 0.00 | 100 | 1011.2 |
| 20260510051509 | 9 | 211 | 1.6 | 0.0 | 0.00 | 0.00 | 0.00 | 100 | 1010.9 |
| 20260510044555 | 8 | 210 | 4.8 | 0.0 | 0.00 | 0.00 | 0.00 | 100 | 1010.7 |
| 20260510043052 | 8 | 209 | 3.2 | 0.0 | 0.00 | 0.00 | 0.00 | 100 | 1010.4 |
| 20260510041605 | 8 | 210 | 3.2 | 0.0 | 0.00 | 0.00 | 0.00 | 100 | 1010.4 |
| 20260510040048 | 8 | 214 | 1.6 | 0.0 | 0.00 | 0.00 | 0.00 | 100 | 1010.7 |
| 20260510034544 | 8 | 214 | 1.6 | 0.0 | 0.00 | 0.00 | 0.94 | 100 | 1010.6 |
| 20260510033040 | 7 | 214 | 0.0 | 0.0 | 0.00 | 0.00 | 0.94 | 100 | 1010.4 |
| 20260510031547 | 7 | 214 | 0.0 | 0.0 | 0.00 | 0.00 | 0.94 | 100 | 1010.4 |
| 20260510030035 | 8 | 214 | 0.0 | 0.0 | 0.00 | 0.00 | 0.94 | 100 | 1010.5 |
| 20260510024524 | 8 | 214 | 0.0 | 0.0 | 0.00 | 0.00 | 0.94 | 8 | 1010.2 |
| 20260510023019 | 8 | 214 | 0.0 | 0.0 | 0.00 | 0.00 | 0.94 | 14 | 1010.3 |
| 20260510021525 | 9 | 214 | 0.0 | 0.0 | 0.00 | 0.00 | 0.94 | 17 | 1010.5 |
| 20260510020013 | 10 | 214 | 0.0 | 0.0 | 0.00 | 0.00 | 0.94 | 18 | 1010.4 |
| 20260510014510 | 10 | 214 | 0.0 | 0.0 | 0.00 | 0.00 | 0.94 | 20 | 1010.4 |
| 20260510013005 | 10 | 214 | 0.0 | 0.0 | 0.00 | 0.00 | 0.94 | 20 | 1010.0 |
| 20260510011505 | 10 | 214 | 1.6 | 0.0 | 0.00 | 0.00 | 0.94 | 17 | 1010.1 |
| 20260510010100 | 10 | 215 | 3.2 | 0.0 | 0.00 | 0.00 | 0.94 | 17 | 1010.3 |
| 20260510004603 | 10 | 236 | 1.6 | 0.0 | 0.00 | 0.00 | 0.94 | 19 | 1010.0 |
| 20260510003051 | 10 | 238 | 1.6 | 0.0 | 0.00 | 0.00 | 0.94 | 22 | 1009.9 |
| 20260510001548 | 10 | 238 | 1.6 | 0.0 | 0.00 | 0.00 | 0.94 | 26 | 1009.7 |
| 20260510000042 | 11 | 238 | 4.8 | 0.0 | 0.00 | 0.00 | 0.94 | 28 | 1009.8 |
| 20260509234538 | 11 | 207 | 6.4 | 0.0 | 0.00 | 0.00 | 0.94 | 32 | 1009.4 |
| 20260509233035 | 11 | 198 | 6.4 | 0.0 | 0.00 | 0.00 | 0.94 | 35 | 1009.4 |
| 20260509231530 | 11 | 221 | 6.4 | 0.0 | 0.00 | 0.00 | 0.94 | 37 | 1009.2 |
| 20260509230027 | 11 | 193 | 6.4 | 0.0 | 0.00 | 0.00 | 0.94 | 38 | 1009.0 |
| 20260509224522 | 11 | 204 | 8.0 | 0.0 | 0.00 | 0.00 | 0.94 | 37 | 1008.9 |
| 20260509223020 | 11 | 211 | 9.7 | 0.0 | 0.00 | 0.00 | 0.94 | 36 | 1009.1 |
| 20260509221516 | 11 | 192 | 8.0 | 0.0 | 0.00 | 0.00 | 0.94 | 35 | 1009.2 |
| 20260509220011 | 11 | 208 | 11.3 | 0.0 | 0.00 | 0.00 | 0.94 | 32 | 1009.2 |
| 20260509214506 | 11 | 215 | 11.3 | 0.0 | 0.00 | 0.00 | 0.94 | 28 | 1009.3 |
| 20260509213002 | 11 | 203 | 14.5 | 0.0 | 0.00 | 0.00 | 0.94 | 32 | 1009.6 |
| 20260509211602 | 11 | 224 | 6.4 | 0.0 | 0.00 | 0.00 | 0.94 | 32 | 1009.6 |
| 20260509210106 | 11 | 202 | 11.3 | 0.0 | 0.00 | 0.00 | 0.94 | 28 | 1009.7 |
| 20260509204551 | 10 | 224 | 12.9 | 0.0 | 0.00 | 0.00 | 0.94 | 21 | 1009.6 |
| 20260509203046 | 10 | 229 | 8.0 | 0.0 | 0.00 | 0.00 | 0.94 | 10 | 1009.9 |
| 20260509201546 | 10 | 188 | 8.0 | 0.0 | 0.00 | 0.00 | 0.94 | 6 | 1010.0 |
| 20260509200048 | 10 | 198 | 11.3 | 0.0 | 0.00 | 0.00 | 0.94 | 4 | 1010.1 |
| 20260509194537 | 10 | 223 | 9.7 | 0.0 | 0.00 | 0.00 | 0.94 | 100 | 1010.3 |
| 20260509193032 | 10 | 182 | 8.0 | 0.0 | 0.00 | 0.00 | 0.91 | 100 | 1010.3 |
| 20260509191528 | 10 | 206 | 6.4 | 0.0 | 0.00 | 0.00 | 0.91 | 100 | 1010.4 |
| 20260509190023 | 9 | 184 | 9.7 | 0.0 | 0.00 | 0.00 | 0.91 | 100 | 1010.6 |
| 20260509184532 | 9 | 188 | 3.2 | 0.0 | 0.00 | 0.00 | 0.91 | 100 | 1010.7 |
| 20260509183015 | 9 | 196 | 3.2 | 0.0 | 0.00 | 0.00 | 0.89 | 100 | 1010.7 |
| 20260509181514 | 9 | 192 | 4.8 | 0.0 | 0.00 | 0.00 | 0.89 | 100 | 1010.6 |
| 20260509180008 | 9 | 189 | 6.4 | 0.0 | 0.00 | 0.00 | 0.89 | 100 | 1010.6 |
| 20260509174508 | 9 | 153 | 4.8 | 0.0 | 0.00 | 0.00 | 0.89 | 100 | 1010.6 |
| 20260509173119 | 9 | 200 | 3.2 | 0.0 | 0.00 | 0.00 | 0.86 | 100 | 1010.5 |
| 20260509171602 | 9 | 206 | 4.8 | 0.0 | 0.00 | 0.00 | 0.86 | 100 | 1010.6 |
| 20260509164557 | 8 | 207 | 3.2 | 0.0 | 0.00 | 0.00 | 0.86 | 100 | 1011.2 |
| 20260509163048 | 9 | 198 | 1.6 | 0.0 | 0.00 | 0.00 | 0.84 | 100 | 1011.3 |
| 20260509161542 | 8 | 192 | 0.0 | 0.0 | 0.00 | 0.00 | 0.81 | 100 | 1011.4 |
| 20260509160036 | 8 | 192 | 1.6 | 0.0 | 0.00 | 0.00 | 0.79 | 100 | 1011.6 |
| 20260509154532 | 8 | 193 | 0.0 | 0.0 | 0.00 | 0.00 | 0.76 | 100 | 1011.9 |
| 20260509153032 | 8 | 193 | 0.0 | 0.0 | 0.00 | 0.00 | 0.71 | 100 | 1012.2 |
| 20260509151524 | 8 | 193 | 1.6 | 0.0 | 0.00 | 0.00 | 0.71 | 100 | 1012.4 |